Location: Koslow
(50.3020°N, 18.5663°E)
Time: 07:28:00
(UTC+00:00)

STARLINK-1357 - Pass Details

Date: 03 October 2020
Orbit: 548 x 551 km, 53.0° (Epoch: 31 October)

Event Time Altitude Azimuth Distance (km) Brightness Sun altitude
Exits shadow 04:07:00 - 287° (WNW) 1,959 5.8 -7.6°
Reaches altitude 10° 04:07:19 10° 288° (WNW) 1,830 5.7 -7.5°
Maximum altitude 04:11:28 65° 10° (N) 610 3.9 -6.9°
Drops below altitude 10° 04:15:32 10° 93° (E) 1,804 8.1 -6.2°
Sets 04:17:51 0° 97° (E) 2,723 9.6 -5.9°
